Regional Weather Roundup
Issued by NWS

Home | Current Version | Previous Version | Graphics & Text | Print | Product List | Glossary On
Versions: 1 2 3 4 5 6 7 8 9 10 11 12 13 14 15 16 17 18 19 20 21 22 23 24 25 26 27 28 29 30 31 32 33 34 35 36 37 38 39 40 41 42 43 44 45 46 47 48 49 50
000
ASUS45 KCYS 282210
RWRWY

WYOMING REGIONAL WEATHER ROUNDUP
NATIONAL WEATHER SERVICE CHEYENNE WY
300 PM MST WED JAN 28 2015

NOTE:  "FAIR" INDICATES FEW OR NO CLOUDS BELOW 12,000 FEET
WITH NO SIGNIFICANT WEATHER AND/OR OBSTRUCTIONS TO VISIBILITY.

WYZ001-282300-
YELLOWSTONE NATIONAL PARK

CITY           SKY/WX    TMP DP  RH WIND       PRES   REMARKS
LK YELLOWSTONE   N/A     33  30  88 W5        30.27R WCI  29
W YELLOWSTONE  NOT AVBL

$$
WYZ002>013-054>058-071-098>099-282300-
NORTHERN WYOMING

CITY           SKY/WX    TMP DP  RH WIND       PRES   REMARKS
JACKSON        PTSUNNY   39  32  75 CALM      30.25R
CODY           CLOUDY    45  34  65 NW3       30.20R
GREYBULL       FOG       38  38 100 CALM      30.18R VSB 1/2
WORLAND        CLOUDY    37  35  92 CALM      30.18R
SHERIDAN       PTSUNNY   51  29  42 N22       30.16R
BUFFALO        FAIR      47  26  44 N28G39    30.15R
GILLETTE       FAIR      48  27  44 NW24G36   30.09R
HULETT           N/A    N/A N/A N/A MISG        N/A
NEWCASTLE      FAIR      50  28  43 NW21G30   30.05R

$$
WYZ014>020-022>026-101>103-282300-
CENTRAL WYOMING

CITY           SKY/WX    TMP DP  RH WIND       PRES   REMARKS
BIG PINEY      FAIR      41  28  60 N16       30.23R
PINEDALE       FAIR      36  30  80 NW13G21   30.22R WCI  27
DUBOIS         CLOUDY    39  25  56 NW13      30.20R WCI  32
LANDER         CLOUDY    44  33  65 SE5       30.18R
RIVERTON       CLOUDY    42  32  67 SW6       30.19R
CASPER         CLOUDY    39  37  92 S7        30.17R WCI  34
DOUGLAS        CLOUDY    44  38  79 NW18      30.14R

$$
WYZ021-027>030-104>119-282300-
SOUTHERN WYOMING

CITY           SKY/WX    TMP DP  RH WIND       PRES   REMARKS
EVANSTON       FLURRIES  37  32  82 SW5       30.28S WCI  33
KEMMERER       MOCLDY    36  32  87 W9        30.26R WCI  29
FORT BRIDGER   MOCLDY    41  33  71 W15G21    30.30S
ROCK SPRINGS   CLOUDY    41  28  60 W20       30.22S
DIXON          CLOUDY    41  32  70 S6        30.26R
RAWLINS        LGT RAIN  41  30  65 W17       30.20R
SARATOGA       CLOUDY    43  32  65 W24       30.21S
LARAMIE        CLOUDY    42  25  50 W25G33    30.15R
CHEYENNE       FAIR      48  27  44 NW35G48   30.09R
TORRINGTON     CLOUDY    47  37  68 NW14G22   30.09R
PINE BLUFFS    MOCLDY    46  36  66 N21G26    30.09R

$$



USA.gov is the U.S. government's official web portal to all federal, state and local government web resources and services.